User: anonymous   Login
Location: Unspecified
(0.0000°N, 0.0000°E)
Time: 21:20:07
(UTC+00:00)
Language:

FIREBIRD 3 - Orbit

View from above orbital plane
View from above orbital plane
View from above satellite
View from above satellite

Ground track
Ground track

The orbit data is extracted from the following two-line orbital elements,

1 40377U 15003B   17141.92714200 +.00003786 +00000-0 +16297-3 0  9991
2 40377 099.1219 320.6530 0137704 089.4464 272.2539 15.15234634127026
Epoch (UTC): 21 May 2017 22:15:05
Eccentricity: 0.0137704
inclination: 99.1219°
perigee height: 425 km
apogee height: 615 km
right ascension of ascending node: 320.6530°
argument of perigee: 89.4464°
revolutions per day: 15.15234634
mean anomaly at epoch: 272.2539°
orbit number at epoch: 12702

The dashed part of the orbit path shows where the satellite is in the earth's shadow,  

DLR